Weather Roundup
Issued by NWS Corpus Christi, TX

Home | Current Version | Previous Version | Text Only | Print | Product List | Glossary On
Versions: 1 2 3 4 5 6 7 8 9 10 11 12 13 14 15 16 17 18 19 20 21 22 23 24 25 26 27 28 29 30 31 32 33 34 35 36 37 38 39 40 41 42 43 44 45 46 47 48 49 50
000
ASUS44 KCRP 252010
HRRCRP

SOUTH TEXAS REGIONAL WEATHER ROUNDUP
NATIONAL WEATHER SERVICE CORPUS CHRISTI TX
300 PM CDT SAT OCT 25 2014


TXZ229>244-252100-
...CORPUS CHRISTI AREA OBSERVATIONS...

CITY           SKY/WX    TMP DP  RH WIND       PRES   REMARKS
CORPUS CHRISTI MOSUNNY   84  59  42 SE7       30.11F
NAS CORPUS CHR SUNNY     81  67  62 E8        30.11F
ROCKPORT       SUNNY     81  64  56 SE8       30.10F
KINGSVILLE NAS SUNNY     88  63  43 E9        30.09F
ALICE          MOSUNNY   88  60  38 MISG      30.09F
FALFURRIAS     SUNNY     87  60  40 E5        30.09F
$$

...VICTORIA AREA OBSERVATIONS...

CITY           SKY/WX    TMP DP  RH WIND       PRES   REMARKS
VICTORIA       SUNNY     88  59  37 E6        30.10F
BEEVILLE       FAIR      87  56  35 CALM      30.10F
PLEASANTON     SUNNY     87  55  33 CALM      30.11F
SAN ANTONIO    SUNNY     86  56  35 SW5       30.11F
$$

...LAREDO AREA OBSERVATIONS...

CITY           SKY/WX    TMP DP  RH WIND       PRES   REMARKS
LAREDO         SUNNY     88  58  36 VRB3      30.11F
COTULLA        SUNNY     89  55  31 VRB6      30.09F
DEL RIO        SUNNY     85  60  42 SE13      30.09F
MCALLEN        SUNNY     85  61  44 CALM      30.09F
HEBBRONVILLE   SUNNY     86  53  32 SE6       30.11F
$$

...OTHER TEXAS OBSERVATIONS...

CITY           SKY/WX    TMP DP  RH WIND       PRES   REMARKS
BROWNSVILLE    MOSUNNY   85  66  53 NE12      30.09F
HOUSTON        SUNNY     84  58  40 CALM      30.11F
COL. STATION   SUNNY     83  60  45 W5        30.10F
AUSTIN         MOSUNNY   86  59  39 S3        30.10F
WACO           SUNNY     86  61  42 SE6       30.09F
FORT WORTH     SUNNY     86  61  42 SW9       30.08F
WICHITA FALLS  SUNNY     90  56  31 SW9       30.05F
LUBBOCK        SUNNY     84  51  31 S12G20    30.13F
EL PASO        SUNNY     81  45  28 CALM      30.18F
$$

...MARINE OBSERVATIONS...

STATION/POSITION TIME  SKY/WX   TEMP    WIND        PRES    VSBY  WAVE   SWELL
                                AIR SEA DIR/SP/G                  HT/PER HT/PER
                 (UTC)          (F)     (DEG/KT/KT) (MB)    (MI)  (FT/S) (FT/S)
PORT ARANSAS     2000            75 80   80/  9/ 10 1020.9F
BUOY 90 E PORT A 2000            76 81   70/  4/  8 1020.4F         2/ 8   2/ 8
BUOY 45 SE BAFFI 2000            78 81   50/  6/  8 1019.2F         2/ 8   2/ 8
BUOY 200 E PT IS 2000            77 81   50/  6/ 10 1019.0F         3/ 7   3/ 7
BUOY 15 E GALVES 2000            73 78   90/  4/  6 1019.9F         1/ 7   2/ 7
$$



USA.gov is the U.S. government's official web portal to all federal, state and local government web resources and services.